Tacoma, WA

10:53 AM PST on December 10, 2016 (GMT -0800)
McChord Air Force Base

Weather History for KTCM - January, 2015

Change the Weather History Date:

Thursday, January 1, 2015

  Actual Average Record
Temperature  
Mean Temperature 29 °F -  
Max Temperature 40 °F 44 °F 55 °F (2012)
Min Temperature 18 °F 32 °F 6 °F (1979)
Degree Days  
Heating Degree Days 36    
Moisture  
Dew Point 23 °F    
Average Humidity 86    
Maximum Humidity 98    
Minimum Humidity 54    
Precipitation  
Precipitation 0.00 in - - ()
Sea Level Pressure  
Sea Level Pressure 30.32 in    
Wind  
Wind Speed 2 mph (South)    
Max Wind Speed 6 mph    
Max Gust Speed -    
Visibility 10 miles    
Events      
Averages and records for this station are not official NWS values.
T = Trace of Precipitation, MM = Missing Value Source: NWS Daily Summary

Daily Weather History Graph

Daily Weather History Graph

Search for Another Location

Airport or City:

Trip Planner

Search our weather history database for the weather conditions in past years. The results will help you decide how hot, cold, wet, or windy it might be!

Date:

Astronomy

Jan. 01, 2015 Rise Set
Actual Time 7:56 AM PST 4:30 PM PST
Civil Twilight 7:20 AM PST 5:06 PM PST
Nautical Twilight 6:42 AM PST 5:45 PM PST
Astronomical Twilight 6:05 AM PST 6:22 PM PST
Moon 2:14 PM PST (1/1) 4:23 AM PST (1/1)
Length of Visible Light 9h 45m
Length of Day
8h 34m
Waxing Gibbous, 89% of the Moon is Illuminated
Jan 1
Waxing Gibbous
Jan 4
Full
Jan 13
Last Quarter
Jan 20
New
Jan 26
First Quarter

Hourly Weather History & Observations

Time (PST) Temp. Windchill Dew Point Humidity Pressure Visibility Wind Dir Wind Speed Gust Speed Precip Events Conditions
12:58 AM 20.7 °F - 20.1 °F 98% 30.43 in 10.0 mi South 1.2 mph - N/A   Clear
1:58 AM 20.1 °F 15.2 °F 19.2 °F 96% 30.42 in 10.0 mi South 3.5 mph - N/A   Clear
2:58 AM 21.2 °F - 20.7 °F 98% 30.40 in 10.0 mi South 1.2 mph - N/A   Clear
3:58 AM 21.6 °F - 21.0 °F 98% 30.40 in 10.0 mi Calm Calm - N/A   Clear
4:58 AM 20.7 °F - 20.1 °F 98% 30.38 in 10.0 mi Calm Calm - N/A   Clear
5:58 AM 19.0 °F - 18.3 °F 97% 30.35 in 10.0 mi Calm Calm - N/A   Clear
6:58 AM 19.6 °F - 19.0 °F 98% 30.35 in 10.0 mi South 2.3 mph - N/A   Clear
7:58 AM 18.5 °F 13.3 °F 17.8 °F 97% 30.36 in 10.0 mi South 3.5 mph - N/A   Clear
8:58 AM 22.1 °F - 21.6 °F 98% 30.38 in 10.0 mi South 2.3 mph - N/A   Clear
9:58 AM 27.9 °F - 26.1 °F 93% 30.37 in 10.0 mi South 2.3 mph - N/A   Clear
10:58 AM 32.9 °F - 27.7 °F 81% 30.35 in 10.0 mi WSW 1.2 mph - N/A   Clear
11:58 AM 36.5 °F 31.8 °F 26.2 °F 66% 30.32 in 10.0 mi North 5.8 mph - N/A   Clear
12:58 PM 39.2 °F 35.9 °F 27.9 °F 64% 30.30 in 10.0 mi Variable 4.6 mph - N/A   Clear
1:58 PM 39.9 °F 36.7 °F 25.0 °F 55% 30.30 in 10.0 mi NNE 4.6 mph - N/A   Clear
2:58 PM 40.6 °F - 25.2 °F 54% 30.28 in 10.0 mi Calm Calm - N/A   Clear
3:58 PM 39.7 °F - 24.4 °F 54% 30.27 in 10.0 mi North 2.3 mph - N/A   Clear
4:58 PM 36.7 °F - 24.3 °F 61% 30.27 in 10.0 mi Calm Calm - N/A   Clear
5:58 PM 28.6 °F - 25.2 °F 87% 30.28 in 10.0 mi SSW 2.3 mph - N/A   Clear
6:58 PM 27.3 °F - 24.8 °F 90% 30.27 in 10.0 mi Calm Calm - N/A   Clear
7:58 PM 27.3 °F 23.4 °F 25.0 °F 91% 30.25 in 10.0 mi South 3.5 mph - N/A   Clear
8:58 PM 25.0 °F - 24.1 °F 96% 30.24 in 10.0 mi South 2.3 mph - N/A   Clear
9:58 PM 25.5 °F 21.3 °F 24.6 °F 96% 30.24 in 10.0 mi South 3.5 mph - N/A   Clear
10:58 PM 26.6 °F - 25.5 °F 96% 30.24 in 10.0 mi Calm Calm - N/A   Clear
11:58 PM 25.9 °F 21.7 °F 24.8 °F 96% 30.23 in 10.0 mi SSE 3.5 mph - N/A   Clear